Regional Weather Roundup
Issued by NWS

Home | Current Version | Previous Version | Text Only | Print | Product List | Glossary Off
Versions: 1 2 3 4 5 6 7 8 9 10 11 12 13 14 15 16 17 18 19 20 21 22 23 24 25 26 27 28 29 30 31 32 33 34 35 36 37 38 39 40 41 42 43 44 45 46 47 48 49 50

000
ASUS43 KFSD 271710
RWRSD

WEATHER ROUNDUP FOR SOUTH DAKOTA
NATIONAL WEATHER SERVICE SIOUX FALLS SD
1200 PM CDT FRI MAR 27 2015

NOTE: "FAIR" INDICATES FEW OR NO CLOUDS BELOW 12,000 FEET WITH NO
SIGNIFICANT WEATHER AND/OR OBSTRUCTIONS TO VISIBILITY.


SDZ001>005-009-010-012>017-271800-
NORTHWEST AND NORTH CENTRAL SOUTH DAKOTA

CITY           SKY/WX    TMP DP  RH WIND       PRES   REMARKS
BUFFALO          N/A     57  39  51 NW24G30   29.90F
FAITH            N/A     45  30  55 S16       29.97F
MOBRIDGE       CLOUDY    30  26  85 S16       30.02F WCI  19
$$

SDZ012>016-024>037-041>051-057-063-072>074-271800-
SOUTHWEST AND SOUTH CENTRAL SOUTH DAKOTA

CITY           SKY/WX    TMP DP  RH WIND       PRES   REMARKS
RAPID CTY ARPT SUNNY     59  38  45 NW10      29.98F
PIERRE         CLOUDY    30  28  92 SE14      30.07F WCI  19
CUSTER         SUNNY     52  34  50 NW12G24   30.05S
ELLSWORTH AFB  MOSUNNY   62  38  41 N26G33    29.96F
PHILIP         CLOUDY    49  32  52 SW6       29.99F
PINE RIDGE     PTSUNNY   54  40  59 SW10      30.03F
SPEARFISH      FAIR      59  37  44 NW22      30.02F
WINNER         CLOUDY    36  29  75 S13       30.09F
$$

SDZ004>011-016>023-039-040-271800-
NORTHEAST SOUTH DAKOTA

CITY           SKY/WX    TMP DP  RH WIND       PRES   REMARKS
ABERDEEN       CLOUDY    32  14  47 S13       30.16F WCI  22
WATERTOWN      CLOUDY    28  10  46 SW10      30.16F WCI  19
SISSETON         N/A     30  10  43 SW10      30.18F WCI  21
$$

SDZ017-020-022-023-036>040-048>070-271800-
SOUTHEAST SOUTH DAKOTA

CITY           SKY/WX    TMP DP  RH WIND       PRES   REMARKS
SIOUX FALLS    CLOUDY    30   9  41 S8        30.21F WCI  22
HURON          CLOUDY    32  13  45 S12       30.18F WCI  23
CHAMBERLAIN    FLURRIES  32  25  74 SE10G16   30.13F WCI  24
MITCHELL       CLOUDY    32  15  49 MISG      30.21F
YANKTON        CLOUDY    30  12  47 SE3       30.24F
$$

ABBREVIATIONS USED IN REMARKS
   TC - TEMPERATURE IN CELSIUS
  WCI - WIND CHILL INDEX
   HX - HEAT INDEX
  VSB - VISIBILITY



USA.gov is the U.S. government's official web portal to all federal, state and local government web resources and services.